Location: Newark
(52.2583°N, 7.1190°W)
Time: 10:48:50
(UTC+00:00)

S-56A Canister/Altair - Pass Details

Date: 18 November 2019
Orbit: 633 x 2499 km, 38.9° (Epoch: 11 December)

Event Time Altitude Azimuth Distance (km) Brightness Sun altitude
Rises 20:00:51 0° 249° (WSW) 4,427 12.3 -31.5°
Reaches altitude 10° 20:04:49 10° 238° (WSW) 3,110 11.1 -32.1°
Enters shadow 20:09:34 23° 199° (SSW) 1,927 9.6 -32.8°
